Time,TemperatureF,DewpointF,PressureIn,WindDirection,WindDirectionDegrees,WindSpeedMPH,WindSpeedGustMPH,Humidity,HourlyPrecipIn,Conditions,Clouds,dailyrainin,SoftwareType,DateUTC
2013-12-02 00:01:00,41.7,34.7,30.03,SW,226,0.0,1.0,76,0.00,,,0.00,Wunderground v.1.15,2013-12-02 05:01:00,
2013-12-02 00:02:00,41.6,34.6,30.02,WSW,240,0.0,1.0,76,0.00,,,0.00,Wunderground v.1.15,2013-12-02 05:02:00,
2013-12-02 00:04:00,41.6,34.6,30.02,SW,226,0.0,1.0,76,0.00,,,0.00,Wunderground v.1.15,2013-12-02 05:04:00,
2013-12-02 00:06:00,41.5,34.5,30.02,SE,142,0.0,1.0,76,0.00,,,0.00,Wunderground v.1.15,2013-12-02 05:06:00,
2013-12-02 00:09:00,41.5,34.8,30.02,SW,214,1.0,1.0,77,0.00,,,0.00,Wunderground v.1.15,2013-12-02 05:09:00,
2013-12-02 00:12:00,41.3,34.6,30.02,SSW,201,0.0,0.0,77,0.00,,,0.00,Wunderground v.1.15,2013-12-02 05:12:00,
2013-12-02 00:18:00,41.2,34.5,30.02,South,188,2.0,2.0,77,0.00,,,0.00,Wunderground v.1.15,2013-12-02 05:18:00,
2013-12-02 00:23:00,41.1,34.4,30.02,SE,139,0.0,0.0,77,0.00,,,0.00,Wunderground v.1.15,2013-12-02 05:23:00,
2013-12-02 00:29:00,41.0,34.7,30.02,SSE,165,0.0,2.0,78,0.00,,,0.00,Wunderground v.1.15,2013-12-02 05:29:00,
2013-12-02 00:34:00,40.9,34.6,30.01,SSW,198,0.0,1.0,78,0.00,,,0.00,Wunderground v.1.15,2013-12-02 05:34:00,
2013-12-02 00:39:00,40.8,34.5,30.01,SW,224,0.0,1.0,78,0.00,,,0.00,Wunderground v.1.15,2013-12-02 05:39:00,
2013-12-02 00:45:00,40.8,34.5,30.01,SE,138,0.0,1.0,78,0.00,,,0.00,Wunderground v.1.15,2013-12-02 05:45:00,
2013-12-02 00:50:00,40.8,34.5,30.01,ESE,121,0.0,0.0,78,0.00,,,0.00,Wunderground v.1.15,2013-12-02 05:50:00,
2013-12-02 00:56:00,40.6,34.3,30.01,SE,131,0.0,0.0,78,0.00,,,0.00,Wunderground v.1.15,2013-12-02 05:56:00,
2013-12-02 01:01:00,40.6,34.6,30.01,SE,131,0.0,0.0,79,0.00,,,0.00,Wunderground v.1.15,2013-12-02 06:01:00,
2013-12-02 01:07:00,40.5,34.2,30.00,SSW,212,0.0,0.0,78,0.00,,,0.00,Wunderground v.1.15,2013-12-02 06:07:00,
2013-12-02 01:12:00,40.6,34.3,30.00,SSW,212,0.0,0.0,78,0.00,,,0.00,Wunderground v.1.15,2013-12-02 06:12:00,
2013-12-02 01:18:00,40.6,34.3,30.00,SW,225,0.0,0.0,78,0.00,,,0.00,Wunderground v.1.15,2013-12-02 06:18:00,
2013-12-02 01:23:00,40.6,34.3,30.00,SSE,162,0.0,0.0,78,0.00,,,0.00,Wunderground v.1.15,2013-12-02 06:23:00,
2013-12-02 01:28:00,40.7,34.4,30.00,SSE,163,0.0,0.0,78,0.00,,,0.00,Wunderground v.1.15,2013-12-02 06:28:00,
2013-12-02 01:34:00,40.8,34.5,30.00,SW,222,0.0,1.0,78,0.00,,,0.00,Wunderground v.1.15,2013-12-02 06:34:00,
2013-12-02 01:39:00,40.9,34.6,29.99,SE,134,0.0,1.0,78,0.00,,,0.00,Wunderground v.1.15,2013-12-02 06:39:00,
2013-12-02 01:45:00,40.8,34.5,29.99,SE,134,0.0,0.0,78,0.00,,,0.00,Wunderground v.1.15,2013-12-02 06:45:00,
2013-12-02 01:50:00,40.8,34.5,29.99,SE,134,0.0,0.0,78,0.00,,,0.00,Wunderground v.1.15,2013-12-02 06:50:00,
2013-12-02 01:55:00,40.7,34.4,29.99,SE,134,0.0,0.0,78,0.00,,,0.00,Wunderground v.1.15,2013-12-02 06:55:00,
2013-12-02 02:00:00,40.6,34.3,29.99,SE,134,0.0,0.0,78,0.00,,,0.00,Wunderground v.1.15,2013-12-02 07:00:00,
2013-12-02 02:05:00,40.5,34.2,29.99,SE,134,0.0,0.0,78,0.00,,,0.00,Wunderground v.1.15,2013-12-02 07:05:00,
2013-12-02 02:10:00,40.4,34.1,29.99,SE,134,0.0,0.0,78,0.00,,,0.00,Wunderground v.1.15,2013-12-02 07:10:00,
2013-12-02 02:15:00,40.2,33.9,29.99,SE,134,1.0,1.0,78,0.00,,,0.00,Wunderground v.1.15,2013-12-02 07:15:00,
2013-12-02 02:20:00,40.3,34.3,29.99,SE,132,0.0,0.0,79,0.00,,,0.00,Wunderground v.1.15,2013-12-02 07:20:00,
2013-12-02 02:25:00,40.2,33.9,29.98,SE,132,0.0,1.0,78,0.00,,,0.00,Wunderground v.1.15,2013-12-02 07:25:00,
2013-12-02 02:30:00,40.2,34.2,29.98,SE,134,0.0,0.0,79,0.00,,,0.00,Wunderground v.1.15,2013-12-02 07:30:00,
2013-12-02 02:35:00,40.1,34.1,29.98,SE,134,0.0,0.0,79,0.00,,,0.00,Wunderground v.1.15,2013-12-02 07:35:00,
2013-12-02 02:40:00,40.0,34.0,29.98,SE,134,0.0,0.0,79,0.00,,,0.00,Wunderground v.1.15,2013-12-02 07:40:00,
2013-12-02 02:45:00,39.9,33.9,29.98,SE,134,0.0,0.0,79,0.00,,,0.00,Wunderground v.1.15,2013-12-02 07:45:00,
2013-12-02 02:50:00,40.0,34.0,29.98,SE,134,0.0,0.0,79,0.00,,,0.00,Wunderground v.1.15,2013-12-02 07:50:00,
2013-12-02 02:55:00,40.0,34.0,29.97,SE,134,0.0,0.0,79,0.00,,,0.00,Wunderground v.1.15,2013-12-02 07:55:00,
2013-12-02 03:00:00,40.0,34.0,29.97,SE,134,0.0,0.0,79,0.00,,,0.00,Wunderground v.1.15,2013-12-02 08:00:00,
2013-12-02 03:05:00,40.0,34.0,29.97,SE,139,1.0,1.0,79,0.00,,,0.00,Wunderground v.1.15,2013-12-02 08:05:00,
2013-12-02 03:10:00,40.2,34.2,29.97,SW,233,0.0,0.0,79,0.00,,,0.00,Wunderground v.1.15,2013-12-02 08:10:00,
2013-12-02 03:15:00,40.3,34.0,29.97,SSW,208,0.0,1.0,78,0.00,,,0.00,Wunderground v.1.15,2013-12-02 08:15:00,
2013-12-02 03:20:00,40.5,34.2,29.96,WSW,253,0.0,0.0,78,0.00,,,0.00,Wunderground v.1.15,2013-12-02 08:20:00,
2013-12-02 03:25:00,40.5,34.2,29.96,SW,223,0.0,1.0,78,0.00,,,0.00,Wunderground v.1.15,2013-12-02 08:25:00,
2013-12-02 03:30:00,40.5,34.2,29.96,SW,228,0.0,1.0,78,0.00,,,0.00,Wunderground v.1.15,2013-12-02 08:30:00,
2013-12-02 03:35:00,40.6,34.3,29.96,SW,235,1.0,1.0,78,0.00,,,0.00,Wunderground v.1.15,2013-12-02 08:35:00,
2013-12-02 03:40:00,40.6,34.3,29.96,SW,236,0.0,0.0,78,0.00,,,0.00,Wunderground v.1.15,2013-12-02 08:40:00,
2013-12-02 03:45:00,40.7,34.4,29.96,WSW,242,0.0,2.0,78,0.00,,,0.00,Wunderground v.1.15,2013-12-02 08:45:00,
2013-12-02 03:50:00,40.7,34.0,29.96,SW,229,1.0,2.0,77,0.00,,,0.00,Wunderground v.1.15,2013-12-02 08:50:00,
2013-12-02 03:55:00,40.6,34.3,29.95,WSW,248,0.0,2.0,78,0.00,,,0.00,Wunderground v.1.15,2013-12-02 08:55:00,
2013-12-02 04:00:00,40.6,34.3,29.95,WSW,248,0.0,0.0,78,0.00,,,0.00,Wunderground v.1.15,2013-12-02 09:00:00,
2013-12-02 04:05:00,40.6,34.3,29.95,SSW,212,0.0,2.0,78,0.00,,,0.00,Wunderground v.1.15,2013-12-02 09:05:00,
2013-12-02 04:10:00,40.5,34.2,29.95,SW,219,0.0,1.0,78,0.00,,,0.00,Wunderground v.1.15,2013-12-02 09:10:00,
2013-12-02 04:15:00,40.6,34.3,29.95,WSW,250,0.0,2.0,78,0.00,,,0.00,Wunderground v.1.15,2013-12-02 09:15:00,
2013-12-02 04:20:00,40.5,33.9,29.94,WSW,243,0.0,1.0,77,0.00,,,0.00,Wunderground v.1.15,2013-12-02 09:20:00,
2013-12-02 04:25:00,40.6,34.3,29.94,SW,224,0.0,1.0,78,0.00,,,0.00,Wunderground v.1.15,2013-12-02 09:25:00,
2013-12-02 04:30:00,40.6,34.0,29.94,WSW,253,0.0,0.0,77,0.00,,,0.00,Wunderground v.1.15,2013-12-02 09:30:00,
2013-12-02 04:35:00,40.6,34.0,29.94,WNW,302,0.0,3.0,77,0.00,,,0.00,Wunderground v.1.15,2013-12-02 09:35:00,
2013-12-02 04:40:00,40.6,34.0,29.94,SSW,210,0.0,0.0,77,0.00,,,0.00,Wunderground v.1.15,2013-12-02 09:40:00,
2013-12-02 04:45:00,40.6,34.0,29.94,WSW,257,0.0,1.0,77,0.00,,,0.00,Wunderground v.1.15,2013-12-02 09:45:00,
2013-12-02 04:50:00,40.6,34.0,29.94,WSW,257,0.0,0.0,77,0.00,,,0.00,Wunderground v.1.15,2013-12-02 09:50:00,
2013-12-02 04:55:00,40.4,33.8,29.93,WSW,257,0.0,0.0,77,0.00,,,0.00,Wunderground v.1.15,2013-12-02 09:55:00,
2013-12-02 05:00:00,40.3,34.0,29.93,WSW,257,0.0,0.0,78,0.00,,,0.00,Wunderground v.1.15,2013-12-02 10:00:00,
2013-12-02 05:05:00,40.1,33.8,29.93,WSW,257,0.0,0.0,78,0.00,,,0.00,Wunderground v.1.15,2013-12-02 10:05:00,
2013-12-02 05:10:00,39.9,33.6,29.93,WSW,257,0.0,0.0,78,0.00,,,0.00,Wunderground v.1.15,2013-12-02 10:10:00,
2013-12-02 05:15:00,39.7,33.7,29.93,WSW,257,0.0,0.0,79,0.00,,,0.00,Wunderground v.1.15,2013-12-02 10:15:00,
2013-12-02 05:20:00,39.7,33.7,29.93,WSW,257,0.0,0.0,79,0.00,,,0.00,Wunderground v.1.15,2013-12-02 10:20:00,
2013-12-02 05:25:00,39.7,33.7,29.93,WSW,257,0.0,1.0,79,0.00,,,0.00,Wunderground v.1.15,2013-12-02 10:25:00,
2013-12-02 05:30:00,39.6,33.6,29.93,WSW,257,0.0,0.0,79,0.00,,,0.00,Wunderground v.1.15,2013-12-02 10:30:00,
2013-12-02 05:35:00,39.3,33.6,29.93,WSW,257,0.0,1.0,80,0.00,,,0.00,Wunderground v.1.15,2013-12-02 10:35:00,
2013-12-02 05:40:00,39.2,33.5,29.93,SW,224,0.0,0.0,80,0.00,,,0.00,Wunderground v.1.15,2013-12-02 10:40:00,
2013-12-02 05:45:00,39.1,33.8,29.93,SW,224,0.0,1.0,81,0.00,,,0.00,Wunderground v.1.15,2013-12-02 10:45:00,
2013-12-02 05:50:00,39.1,33.5,29.93,SW,224,0.0,0.0,80,0.00,,,0.00,Wunderground v.1.15,2013-12-02 10:50:00,
2013-12-02 05:55:00,39.1,33.5,29.93,SW,224,0.0,0.0,80,0.00,,,0.00,Wunderground v.1.15,2013-12-02 10:55:00,
2013-12-02 06:00:00,39.0,33.7,29.93,SW,224,0.0,0.0,81,0.00,,,0.00,Wunderground v.1.15,2013-12-02 11:00:00,
2013-12-02 06:05:00,39.1,33.8,29.93,SW,224,0.0,1.0,81,0.00,,,0.00,Wunderground v.1.15,2013-12-02 11:05:00,
2013-12-02 06:10:00,39.1,33.5,29.93,SW,224,0.0,0.0,80,0.00,,,0.00,Wunderground v.1.15,2013-12-02 11:10:00,
2013-12-02 06:15:00,38.9,33.6,29.93,SW,224,0.0,0.0,81,0.00,,,0.00,Wunderground v.1.15,2013-12-02 11:15:00,
2013-12-02 06:20:00,38.7,33.4,29.93,SSE,152,0.0,0.0,81,0.00,,,0.00,Wunderground v.1.15,2013-12-02 11:20:00,
2013-12-02 06:25:00,38.5,33.2,29.93,SSE,152,0.0,0.0,81,0.00,,,0.00,Wunderground v.1.15,2013-12-02 11:25:00,
2013-12-02 06:30:00,38.4,33.4,29.93,SSE,153,0.0,0.0,82,0.00,,,0.00,Wunderground v.1.15,2013-12-02 11:30:00,
2013-12-02 06:35:00,38.1,33.1,29.93,SSE,152,0.0,0.0,82,0.00,,,0.00,Wunderground v.1.15,2013-12-02 11:35:00,
2013-12-02 06:40:00,38.1,33.4,29.93,SSE,153,0.0,0.0,83,0.00,,,0.00,Wunderground v.1.15,2013-12-02 11:40:00,
2013-12-02 06:45:00,38.0,33.3,29.93,SSE,152,0.0,0.0,83,0.00,,,0.00,Wunderground v.1.15,2013-12-02 11:45:00,
2013-12-02 06:50:00,37.9,33.5,29.93,SSE,153,0.0,0.0,84,0.00,,,0.00,Wunderground v.1.15,2013-12-02 11:50:00,
2013-12-02 06:55:00,37.8,33.4,29.93,SSE,153,0.0,1.0,84,0.00,,,0.00,Wunderground v.1.15,2013-12-02 11:55:00,
2013-12-02 07:00:00,37.9,33.5,29.93,SSE,153,0.0,0.0,84,0.00,,,0.00,Wunderground v.1.15,2013-12-02 12:00:00,
2013-12-02 07:05:00,37.9,33.5,29.93,SSE,153,0.0,0.0,84,0.00,,,0.00,Wunderground v.1.15,2013-12-02 12:05:00,
2013-12-02 07:10:00,37.8,33.4,29.93,SSE,153,0.0,0.0,84,0.00,,,0.00,Wunderground v.1.15,2013-12-02 12:10:00,
2013-12-02 07:15:00,37.8,33.4,29.93,SSE,153,0.0,0.0,84,0.00,,,0.00,Wunderground v.1.15,2013-12-02 12:15:00,
2013-12-02 07:20:00,37.8,33.4,29.93,SSE,152,0.0,0.0,84,0.00,,,0.00,Wunderground v.1.15,2013-12-02 12:20:00,
2013-12-02 07:25:00,37.7,33.3,29.93,SSE,153,0.0,0.0,84,0.00,,,0.00,Wunderground v.1.15,2013-12-02 12:25:00,
2013-12-02 07:30:00,37.6,33.5,29.93,SSE,153,0.0,0.0,85,0.00,,,0.00,Wunderground v.1.15,2013-12-02 12:30:00,
2013-12-02 07:35:00,37.5,33.4,29.93,SSE,152,0.0,0.0,85,0.00,,,0.00,Wunderground v.1.15,2013-12-02 12:35:00,
2013-12-02 07:40:00,37.4,33.3,29.92,SSE,152,0.0,0.0,85,0.00,,,0.00,Wunderground v.1.15,2013-12-02 12:40:00,
2013-12-02 07:45:00,37.3,33.5,29.93,SSE,152,0.0,0.0,86,0.00,,,0.00,Wunderground v.1.15,2013-12-02 12:45:00,
2013-12-02 07:50:00,37.3,33.5,29.93,SSE,152,0.0,0.0,86,0.00,,,0.00,Wunderground v.1.15,2013-12-02 12:50:00,
2013-12-02 07:55:00,37.3,33.5,29.93,SSE,153,0.0,0.0,86,0.00,,,0.00,Wunderground v.1.15,2013-12-02 12:55:00,
2013-12-02 08:00:00,37.4,33.6,29.93,SSE,153,0.0,0.0,86,0.00,,,0.00,Wunderground v.1.15,2013-12-02 13:00:00,
2013-12-02 08:05:00,37.5,34.0,29.92,SSE,152,0.0,0.0,87,0.00,,,0.00,Wunderground v.1.15,2013-12-02 13:05:00,
2013-12-02 08:10:00,37.5,33.7,29.93,SSE,153,0.0,0.0,86,0.00,,,0.00,Wunderground v.1.15,2013-12-02 13:10:00,
2013-12-02 08:15:00,37.7,33.9,29.92,SSE,152,0.0,0.0,86,0.00,,,0.00,Wunderground v.1.15,2013-12-02 13:15:00,
2013-12-02 08:20:00,37.9,34.1,29.93,SSE,153,0.0,0.0,86,0.00,,,0.00,Wunderground v.1.15,2013-12-02 13:20:00,
2013-12-02 08:25:00,38.0,34.5,29.93,SSE,158,1.0,1.0,87,0.00,,,0.00,Wunderground v.1.15,2013-12-02 13:25:00,
2013-12-02 08:30:00,38.1,34.6,29.93,SSW,208,0.0,0.0,87,0.00,,,0.00,Wunderground v.1.15,2013-12-02 13:30:00,
2013-12-02 08:35:00,38.4,34.6,29.93,SSW,208,0.0,1.0,86,0.00,,,0.00,Wunderground v.1.15,2013-12-02 13:35:00,
2013-12-02 08:40:00,38.7,34.9,29.93,SSW,209,0.0,1.0,86,0.00,,,0.00,Wunderground v.1.15,2013-12-02 13:40:00,
2013-12-02 08:45:00,39.1,35.0,29.93,SSW,208,0.0,1.0,85,0.00,,,0.00,Wunderground v.1.15,2013-12-02 13:45:00,
2013-12-02 08:50:00,39.6,35.8,29.94,SSW,208,0.0,0.0,86,0.00,,,0.00,Wunderground v.1.15,2013-12-02 13:50:00,
2013-12-02 08:55:00,40.0,35.6,29.93,SSW,207,1.0,3.0,84,0.00,,,0.00,Wunderground v.1.15,2013-12-02 13:55:00,
2013-12-02 09:00:00,40.5,35.4,29.93,SW,216,0.0,1.0,82,0.00,,,0.00,Wunderground v.1.15,2013-12-02 14:00:00,
2013-12-02 09:05:00,40.9,35.8,29.93,SW,226,0.0,2.0,82,0.00,,,0.00,Wunderground v.1.15,2013-12-02 14:05:00,
2013-12-02 09:10:00,41.3,35.6,29.93,SSW,210,1.0,1.0,80,0.00,,,0.00,Wunderground v.1.15,2013-12-02 14:10:00,
2013-12-02 09:15:00,41.8,35.4,29.93,WSW,238,0.0,3.0,78,0.00,,,0.00,Wunderground v.1.15,2013-12-02 14:15:00,
2013-12-02 09:20:00,42.1,35.4,29.92,SSW,205,0.0,1.0,77,0.00,,,0.00,Wunderground v.1.15,2013-12-02 14:20:00,
2013-12-02 09:25:00,42.4,35.4,29.92,SW,235,0.0,1.0,76,0.00,,,0.00,Wunderground v.1.15,2013-12-02 14:25:00,
2013-12-02 09:30:00,42.9,35.9,29.92,SW,224,1.0,1.0,76,0.00,,,0.00,Wunderground v.1.15,2013-12-02 14:30:00,
2013-12-02 09:35:00,43.1,35.4,29.92,SSW,207,0.0,2.0,74,0.00,,,0.00,Wunderground v.1.15,2013-12-02 14:35:00,
2013-12-02 09:40:00,43.2,35.1,29.92,SW,222,3.0,3.0,73,0.00,,,0.00,Wunderground v.1.15,2013-12-02 14:40:00,
2013-12-02 09:45:00,43.3,35.2,29.92,SW,233,1.0,3.0,73,0.00,,,0.00,Wunderground v.1.15,2013-12-02 14:45:00,
2013-12-02 09:50:00,43.5,35.4,29.92,WSW,245,1.0,2.0,73,0.00,,,0.00,Wunderground v.1.15,2013-12-02 14:50:00,
2013-12-02 09:55:00,43.7,35.6,29.92,SSE,159,1.0,4.0,73,0.00,,,0.00,Wunderground v.1.15,2013-12-02 14:55:00,
2013-12-02 10:00:00,43.8,35.4,29.92,SSE,155,1.0,2.0,72,0.00,,,0.00,Wunderground v.1.15,2013-12-02 15:00:00,
2013-12-02 10:05:00,43.9,35.8,29.92,SW,226,1.0,3.0,73,0.00,,,0.00,Wunderground v.1.15,2013-12-02 15:05:00,
2013-12-02 10:11:00,44.0,35.9,29.92,West,268,0.0,1.0,73,0.00,,,0.00,Wunderground v.1.15,2013-12-02 15:11:00,
2013-12-02 10:16:00,44.0,35.6,29.92,WSW,243,3.0,3.0,72,0.00,,,0.00,Wunderground v.1.15,2013-12-02 15:16:00,
2013-12-02 10:21:00,43.9,35.1,29.92,WSW,238,0.0,2.0,71,0.00,,,0.00,Wunderground v.1.15,2013-12-02 15:21:00,
2013-12-02 10:26:00,44.1,35.6,29.91,SW,232,0.0,2.0,72,0.00,,,0.00,Wunderground v.1.15,2013-12-02 15:26:00,
2013-12-02 10:31:00,44.2,35.4,29.91,SSW,212,0.0,2.0,71,0.00,,,0.00,Wunderground v.1.15,2013-12-02 15:31:00,
2013-12-02 10:36:00,44.2,35.4,29.91,SSE,154,2.0,3.0,71,0.00,,,0.00,Wunderground v.1.15,2013-12-02 15:36:00,
2013-12-02 10:41:00,44.2,35.4,29.91,SW,229,1.0,3.0,71,0.00,,,0.00,Wunderground v.1.15,2013-12-02 15:41:00,
2013-12-02 10:46:00,44.2,35.4,29.91,SSW,208,1.0,3.0,71,0.00,,,0.00,Wunderground v.1.15,2013-12-02 15:46:00,
2013-12-02 10:51:00,44.4,36.3,29.91,SE,146,0.0,1.0,73,0.00,,,0.00,Wunderground v.1.15,2013-12-02 15:51:00,
2013-12-02 10:56:00,44.7,35.5,29.91,West,262,0.0,1.0,70,0.00,,,0.00,Wunderground v.1.15,2013-12-02 15:56:00,
2013-12-02 11:01:00,44.8,35.6,29.90,SE,132,0.0,1.0,70,0.00,,,0.00,Wunderground v.1.15,2013-12-02 16:01:00,
2013-12-02 11:06:00,44.9,35.7,29.90,SSE,167,1.0,2.0,70,0.00,,,0.00,Wunderground v.1.15,2013-12-02 16:06:00,
2013-12-02 11:11:00,45.0,35.8,29.90,SSW,204,2.0,2.0,70,0.00,,,0.00,Wunderground v.1.15,2013-12-02 16:11:00,
2013-12-02 11:16:00,45.5,36.3,29.89,SE,130,1.0,4.0,70,0.00,,,0.00,Wunderground v.1.15,2013-12-02 16:16:00,
2013-12-02 11:21:00,45.8,36.2,29.89,SE,131,3.0,5.0,69,0.00,,,0.00,Wunderground v.1.15,2013-12-02 16:21:00,
2013-12-02 11:26:00,45.7,36.5,29.89,SE,131,3.0,5.0,70,0.00,,,0.00,Wunderground v.1.15,2013-12-02 16:26:00,
2013-12-02 11:31:00,45.6,36.4,29.89,SW,231,3.0,3.0,70,0.00,,,0.00,Wunderground v.1.15,2013-12-02 16:31:00,
2013-12-02 11:36:00,45.6,36.4,29.89,SW,225,2.0,4.0,70,0.00,,,0.00,Wunderground v.1.15,2013-12-02 16:36:00,
2013-12-02 11:41:00,45.7,36.5,29.88,ESE,122,1.0,2.0,70,0.00,,,0.00,Wunderground v.1.15,2013-12-02 16:41:00,
2013-12-02 11:46:00,45.9,36.7,29.87,WSW,239,1.0,2.0,70,0.00,,,0.00,Wunderground v.1.15,2013-12-02 16:46:00,
2013-12-02 11:51:00,46.0,36.8,29.88,East,89,2.0,3.0,70,0.00,,,0.00,Wunderground v.1.15,2013-12-02 16:51:00,
2013-12-02 11:56:00,45.7,36.5,29.87,East,99,4.0,4.0,70,0.00,,,0.00,Wunderground v.1.15,2013-12-02 16:56:00,
2013-12-02 12:01:00,45.6,36.4,29.87,SE,127,3.0,5.0,70,0.00,,,0.00,Wunderground v.1.15,2013-12-02 17:01:00,
2013-12-02 12:06:00,45.7,36.8,29.87,SSW,200,2.0,5.0,71,0.00,,,0.00,Wunderground v.1.15,2013-12-02 17:06:00,
2013-12-02 12:11:00,45.7,36.8,29.87,SW,229,3.0,4.0,71,0.00,,,0.00,Wunderground v.1.15,2013-12-02 17:11:00,
2013-12-02 12:16:00,45.6,36.7,29.87,WSW,254,2.0,5.0,71,0.00,,,0.00,Wunderground v.1.15,2013-12-02 17:16:00,
2013-12-02 12:21:00,45.6,36.7,29.87,SSW,204,2.0,4.0,71,0.00,,,0.00,Wunderground v.1.15,2013-12-02 17:21:00,
2013-12-02 12:26:00,45.6,36.7,29.87,WSW,256,2.0,4.0,71,0.00,,,0.00,Wunderground v.1.15,2013-12-02 17:26:00,
2013-12-02 12:31:00,45.5,36.6,29.87,SSW,194,3.0,4.0,71,0.00,,,0.00,Wunderground v.1.15,2013-12-02 17:31:00,
2013-12-02 12:36:00,45.4,36.5,29.86,SW,214,3.0,5.0,71,0.00,,,0.00,Wunderground v.1.15,2013-12-02 17:36:00,
2013-12-02 12:41:00,45.4,36.9,29.86,SE,128,1.0,2.0,72,0.00,,,0.00,Wunderground v.1.15,2013-12-02 17:41:00,
2013-12-02 12:46:00,45.5,36.6,29.86,SSE,158,2.0,5.0,71,0.00,,,0.00,Wunderground v.1.15,2013-12-02 17:46:00,
2013-12-02 12:51:00,45.5,36.6,29.86,SE,136,7.0,8.0,71,0.00,,,0.00,Wunderground v.1.15,2013-12-02 17:51:00,
2013-12-02 12:56:00,45.4,36.9,29.85,SE,124,4.0,8.0,72,0.00,,,0.00,Wunderground v.1.15,2013-12-02 17:56:00,
2013-12-02 13:01:00,45.5,36.6,29.85,SE,131,2.0,6.0,71,0.00,,,0.00,Wunderground v.1.15,2013-12-02 18:01:00,
2013-12-02 13:06:00,45.8,37.3,29.85,ESE,117,4.0,6.0,72,0.00,,,0.00,Wunderground v.1.15,2013-12-02 18:06:00,
2013-12-02 13:11:00,46.1,36.9,29.84,SE,136,2.0,6.0,70,0.00,,,0.00,Wunderground v.1.15,2013-12-02 18:11:00,
2013-12-02 13:16:00,46.3,37.0,29.84,ESE,113,8.0,8.0,70,0.00,,,0.00,Wunderground v.1.15,2013-12-02 18:16:00,
2013-12-02 13:21:00,46.9,37.6,29.83,South,190,2.0,4.0,70,0.00,,,0.00,Wunderground v.1.15,2013-12-02 18:21:00,
2013-12-02 13:26:00,47.2,37.2,29.83,SSE,155,1.0,4.0,68,0.00,,,0.00,Wunderground v.1.15,2013-12-02 18:26:00,
2013-12-02 13:31:00,46.8,36.8,29.83,ESE,110,3.0,5.0,68,0.00,,,0.00,Wunderground v.1.15,2013-12-02 18:31:00,
2013-12-02 13:36:00,46.7,37.4,29.83,ESE,113,4.0,6.0,70,0.00,,,0.00,Wunderground v.1.15,2013-12-02 18:36:00,
2013-12-02 13:41:00,46.7,37.1,29.83,ESE,121,5.0,6.0,69,0.00,,,0.00,Wunderground v.1.15,2013-12-02 18:41:00,
2013-12-02 13:46:00,46.8,37.2,29.83,SE,144,4.0,6.0,69,0.00,,,0.00,Wunderground v.1.15,2013-12-02 18:46:00,
2013-12-02 13:51:00,46.8,37.5,29.83,WSW,243,1.0,4.0,70,0.00,,,0.00,Wunderground v.1.15,2013-12-02 18:51:00,
2013-12-02 13:56:00,46.6,36.6,29.83,SSE,158,3.0,9.0,68,0.00,,,0.00,Wunderground v.1.15,2013-12-02 18:56:00,
2013-12-02 14:01:00,46.3,36.7,29.82,ESE,122,3.0,6.0,69,0.00,,,0.00,Wunderground v.1.15,2013-12-02 19:01:00,
2013-12-02 14:06:00,46.2,36.6,29.82,SE,139,3.0,6.0,69,0.00,,,0.00,Wunderground v.1.15,2013-12-02 19:06:00,
2013-12-02 14:11:00,46.3,37.0,29.83,SE,129,3.0,4.0,70,0.00,,,0.00,Wunderground v.1.15,2013-12-02 19:11:00,
2013-12-02 14:16:00,46.1,36.9,29.82,ESE,118,4.0,6.0,70,0.00,,,0.00,Wunderground v.1.15,2013-12-02 19:16:00,
2013-12-02 14:21:00,46.1,37.2,29.82,SE,142,0.0,3.0,71,0.00,,,0.00,Wunderground v.1.15,2013-12-02 19:21:00,
2013-12-02 14:26:00,46.1,37.2,29.82,ESE,116,7.0,8.0,71,0.00,,,0.00,Wunderground v.1.15,2013-12-02 19:26:00,
2013-12-02 14:31:00,46.0,37.1,29.82,SSE,152,2.0,3.0,71,0.00,,,0.00,Wunderground v.1.15,2013-12-02 19:31:00,
2013-12-02 14:36:00,46.0,37.1,29.82,South,174,1.0,3.0,71,0.00,,,0.00,Wunderground v.1.15,2013-12-02 19:36:00,
2013-12-02 14:41:00,46.0,36.8,29.82,SE,132,1.0,3.0,70,0.00,,,0.00,Wunderground v.1.15,2013-12-02 19:41:00,
2013-12-02 14:46:00,45.9,36.7,29.82,SE,129,4.0,4.0,70,0.00,,,0.00,Wunderground v.1.15,2013-12-02 19:46:00,
2013-12-02 14:51:00,45.7,36.5,29.82,SSE,148,1.0,2.0,70,0.00,,,0.00,Wunderground v.1.15,2013-12-02 19:51:00,
2013-12-02 14:56:00,45.7,36.8,29.82,ESE,122,2.0,2.0,71,0.00,,,0.00,Wunderground v.1.15,2013-12-02 19:56:00,
2013-12-02 15:01:00,45.6,36.7,29.82,SSW,204,3.0,4.0,71,0.00,,,0.00,Wunderground v.1.15,2013-12-02 20:01:00,
2013-12-02 15:06:00,45.6,36.7,29.82,SE,132,2.0,4.0,71,0.00,,,0.00,Wunderground v.1.15,2013-12-02 20:06:00,
2013-12-02 15:11:00,45.5,36.6,29.82,SSE,148,2.0,3.0,71,0.00,,,0.00,Wunderground v.1.15,2013-12-02 20:11:00,
2013-12-02 15:16:00,45.4,36.5,29.82,SSE,160,0.0,3.0,71,0.00,,,0.00,Wunderground v.1.15,2013-12-02 20:16:00,
2013-12-02 15:21:00,45.3,36.8,29.82,ESE,122,0.0,1.0,72,0.00,,,0.00,Wunderground v.1.15,2013-12-02 20:21:00,
2013-12-02 15:26:00,45.4,36.9,29.82,SE,124,2.0,2.0,72,0.00,,,0.00,Wunderground v.1.15,2013-12-02 20:26:00,
2013-12-02 15:31:00,45.4,36.5,29.82,SE,145,1.0,2.0,71,0.00,,,0.00,Wunderground v.1.15,2013-12-02 20:31:00,
2013-12-02 15:36:00,45.5,37.0,29.82,SW,229,1.0,2.0,72,0.00,,,0.00,Wunderground v.1.15,2013-12-02 20:36:00,
2013-12-02 15:41:00,45.5,37.0,29.82,SE,140,2.0,3.0,72,0.00,,,0.00,Wunderground v.1.15,2013-12-02 20:41:00,
2013-12-02 15:46:00,45.5,36.6,29.82,SSE,158,1.0,3.0,71,0.00,,,0.00,Wunderground v.1.15,2013-12-02 20:46:00,
2013-12-02 15:51:00,45.5,37.0,29.82,SSE,153,0.0,1.0,72,0.00,,,0.00,Wunderground v.1.15,2013-12-02 20:51:00,
2013-12-02 15:56:00,45.4,36.5,29.82,SSE,159,1.0,2.0,71,0.00,,,0.00,Wunderground v.1.15,2013-12-02 20:56:00,
2013-12-02 16:01:00,45.4,36.5,29.82,SSE,160,0.0,0.0,71,0.00,,,0.00,Wunderground v.1.15,2013-12-02 21:01:00,
2013-12-02 16:06:00,45.3,36.4,29.82,ESE,118,1.0,3.0,71,0.00,,,0.00,Wunderground v.1.15,2013-12-02 21:06:00,
2013-12-02 16:11:00,45.2,37.1,29.82,ESE,115,2.0,2.0,73,0.00,,,0.00,Wunderground v.1.15,2013-12-02 21:11:00,
2013-12-02 16:16:00,45.2,37.1,29.82,SSE,158,1.0,4.0,73,0.00,,,0.00,Wunderground v.1.15,2013-12-02 21:16:00,
2013-12-02 16:21:00,45.2,37.1,29.82,SSE,155,0.0,3.0,73,0.00,,,0.00,Wunderground v.1.15,2013-12-02 21:21:00,
2013-12-02 16:26:00,45.1,37.0,29.82,SE,143,1.0,3.0,73,0.00,,,0.00,Wunderground v.1.15,2013-12-02 21:26:00,
2013-12-02 16:31:00,45.0,36.9,29.82,SE,129,1.0,2.0,73,0.00,,,0.00,Wunderground v.1.15,2013-12-02 21:31:00,
2013-12-02 16:36:00,44.8,36.7,29.82,SE,134,0.0,2.0,73,0.00,,,0.00,Wunderground v.1.15,2013-12-02 21:36:00,
2013-12-02 16:41:00,44.7,36.9,29.82,SE,127,0.0,1.0,74,0.00,,,0.00,Wunderground v.1.15,2013-12-02 21:41:00,
2013-12-02 16:46:00,44.5,36.7,29.82,SE,135,1.0,1.0,74,0.00,,,0.00,Wunderground v.1.15,2013-12-02 21:46:00,
2013-12-02 16:51:00,44.4,36.6,29.82,SE,134,0.0,0.0,74,0.00,,,0.00,Wunderground v.1.15,2013-12-02 21:51:00,
2013-12-02 16:56:00,44.3,36.5,29.82,SE,134,0.0,1.0,74,0.00,,,0.00,Wunderground v.1.15,2013-12-02 21:56:00,
2013-12-02 17:01:00,44.1,36.3,29.82,SE,136,1.0,1.0,74,0.00,,,0.00,Wunderground v.1.15,2013-12-02 22:01:00,
2013-12-02 17:06:00,44.1,36.3,29.82,SE,133,1.0,2.0,74,0.00,,,0.00,Wunderground v.1.15,2013-12-02 22:06:00,
2013-12-02 17:11:00,43.9,36.5,29.82,SE,132,0.0,1.0,75,0.00,,,0.00,Wunderground v.1.15,2013-12-02 22:11:00,
2013-12-02 17:16:00,43.9,36.5,29.82,SE,131,0.0,1.0,75,0.00,,,0.00,Wunderground v.1.15,2013-12-02 22:16:00,
2013-12-02 17:21:00,43.7,36.3,29.83,SE,133,0.0,1.0,75,0.00,,,0.00,Wunderground v.1.15,2013-12-02 22:21:00,
2013-12-02 17:26:00,43.6,36.2,29.83,SE,134,0.0,1.0,75,0.00,,,0.00,Wunderground v.1.15,2013-12-02 22:26:00,
2013-12-02 17:31:00,43.5,36.1,29.83,SE,134,0.0,0.0,75,0.00,,,0.00,Wunderground v.1.15,2013-12-02 22:31:00,
2013-12-02 17:36:00,43.4,36.0,29.83,SE,134,0.0,0.0,75,0.00,,,0.00,Wunderground v.1.15,2013-12-02 22:36:00,
2013-12-02 17:41:00,43.3,35.9,29.83,SE,134,0.0,0.0,75,0.00,,,0.00,Wunderground v.1.15,2013-12-02 22:41:00,
2013-12-02 17:46:00,43.2,36.1,29.83,SE,134,0.0,1.0,76,0.00,,,0.00,Wunderground v.1.15,2013-12-02 22:46:00,
2013-12-02 17:51:00,43.0,36.0,29.83,SE,134,0.0,0.0,76,0.00,,,0.00,Wunderground v.1.15,2013-12-02 22:51:00,
2013-12-02 17:56:00,42.9,35.9,29.83,SE,129,0.0,1.0,76,0.00,,,0.00,Wunderground v.1.15,2013-12-02 22:56:00,
2013-12-02 18:01:00,42.9,35.9,29.83,SE,129,0.0,0.0,76,0.00,,,0.00,Wunderground v.1.15,2013-12-02 23:01:00,
2013-12-02 18:06:00,42.8,36.1,29.83,SE,128,0.0,1.0,77,0.00,,,0.00,Wunderground v.1.15,2013-12-02 23:06:00,
2013-12-02 18:11:00,42.6,36.2,29.83,SE,128,0.0,1.0,78,0.00,,,0.00,Wunderground v.1.15,2013-12-02 23:11:00,
2013-12-02 18:16:00,42.5,36.1,29.83,ESE,113,0.0,2.0,78,0.00,,,0.00,Wunderground v.1.15,2013-12-02 23:16:00,
2013-12-02 18:21:00,42.6,36.2,29.83,ESE,113,0.0,1.0,78,0.00,,,0.00,Wunderground v.1.15,2013-12-02 23:21:00,
2013-12-02 18:26:00,42.6,36.2,29.83,ESE,113,1.0,1.0,78,0.00,,,0.00,Wunderground v.1.15,2013-12-02 23:26:00,
2013-12-02 18:31:00,42.6,35.9,29.83,ESE,113,0.0,2.0,77,0.00,,,0.00,Wunderground v.1.15,2013-12-02 23:31:00,
2013-12-02 18:36:00,42.6,35.9,29.83,SE,124,0.0,2.0,77,0.00,,,0.00,Wunderground v.1.15,2013-12-02 23:36:00,
2013-12-02 18:41:00,42.5,35.8,29.83,ESE,114,0.0,1.0,77,0.00,,,0.00,Wunderground v.1.15,2013-12-02 23:41:00,
2013-12-02 18:46:00,42.5,36.1,29.83,ESE,118,0.0,1.0,78,0.00,,,0.00,Wunderground v.1.15,2013-12-02 23:46:00,
2013-12-02 18:51:00,42.5,36.1,29.83,ESE,120,0.0,1.0,78,0.00,,,0.00,Wunderground v.1.15,2013-12-02 23:51:00,
2013-12-02 18:56:00,42.4,36.0,29.83,SE,136,2.0,2.0,78,0.00,,,0.00,Wunderground v.1.15,2013-12-02 23:56:00,
2013-12-02 19:01:00,42.4,36.0,29.83,ESE,120,0.0,2.0,78,0.00,,,0.00,Wunderground v.1.15,2013-12-03 00:01:00,
2013-12-02 19:06:00,42.3,35.9,29.83,ESE,120,0.0,2.0,78,0.00,,,0.00,Wunderground v.1.15,2013-12-03 00:06:00,
2013-12-02 19:11:00,42.3,35.9,29.83,ESE,122,0.0,1.0,78,0.00,,,0.00,Wunderground v.1.15,2013-12-03 00:11:00,
2013-12-02 19:16:00,42.2,35.8,29.83,ESE,123,1.0,2.0,78,0.00,,,0.00,Wunderground v.1.15,2013-12-03 00:16:00,
2013-12-02 19:21:00,42.1,36.1,29.83,SE,132,1.0,2.0,79,0.00,,,0.00,Wunderground v.1.15,2013-12-03 00:21:00,
2013-12-02 19:26:00,42.1,36.1,29.83,SE,126,1.0,3.0,79,0.00,,,0.00,Wunderground v.1.15,2013-12-03 00:26:00,
2013-12-02 19:31:00,42.0,36.0,29.83,SE,139,2.0,3.0,79,0.00,,,0.00,Wunderground v.1.15,2013-12-03 00:31:00,
2013-12-02 19:36:00,42.0,36.0,29.83,ESE,121,3.0,5.0,79,0.00,,,0.00,Wunderground v.1.15,2013-12-03 00:36:00,
2013-12-02 19:41:00,42.0,36.0,29.84,SE,136,2.0,2.0,79,0.00,,,0.00,Wunderground v.1.15,2013-12-03 00:41:00,
2013-12-02 19:46:00,42.0,36.0,29.83,ESE,110,1.0,3.0,79,0.00,,,0.00,Wunderground v.1.15,2013-12-03 00:46:00,
2013-12-02 19:51:00,42.0,36.0,29.84,SE,127,2.0,3.0,79,0.00,,,0.00,Wunderground v.1.15,2013-12-03 00:51:00,
2013-12-02 19:56:00,42.0,36.0,29.83,SE,129,3.0,5.0,79,0.00,,,0.00,Wunderground v.1.15,2013-12-03 00:56:00,
2013-12-02 20:01:00,41.9,35.9,29.84,SE,134,2.0,3.0,79,0.00,,,0.00,Wunderground v.1.15,2013-12-03 01:01:00,
2013-12-02 20:06:00,41.8,35.8,29.84,SE,127,2.0,4.0,79,0.00,,,0.00,Wunderground v.1.15,2013-12-03 01:06:00,
2013-12-02 20:11:00,41.7,35.7,29.84,SE,142,1.0,3.0,79,0.00,,,0.00,Wunderground v.1.15,2013-12-03 01:11:00,
2013-12-02 20:16:00,41.6,35.6,29.84,SE,129,2.0,3.0,79,0.00,,,0.00,Wunderground v.1.15,2013-12-03 01:16:00,
2013-12-02 20:21:00,41.6,35.9,29.84,SE,124,2.0,3.0,80,0.00,,,0.00,Wunderground v.1.15,2013-12-03 01:21:00,
2013-12-02 20:26:00,41.7,36.0,29.84,ESE,115,2.0,4.0,80,0.00,,,0.00,Wunderground v.1.15,2013-12-03 01:26:00,
2013-12-02 20:31:00,41.6,35.6,29.84,SE,129,2.0,2.0,79,0.00,,,0.00,Wunderground v.1.15,2013-12-03 01:31:00,
2013-12-02 20:36:00,41.3,35.6,29.84,SE,143,1.0,3.0,80,0.00,,,0.00,Wunderground v.1.15,2013-12-03 01:36:00,
2013-12-02 20:41:00,41.1,35.4,29.84,SSE,152,1.0,2.0,80,0.00,,,0.00,Wunderground v.1.15,2013-12-03 01:41:00,
2013-12-02 20:46:00,40.9,35.5,29.84,SE,134,1.0,4.0,81,0.00,,,0.00,Wunderground v.1.15,2013-12-03 01:46:00,
2013-12-02 20:51:00,40.8,35.4,29.84,SE,139,2.0,2.0,81,0.00,,,0.00,Wunderground v.1.15,2013-12-03 01:51:00,
2013-12-02 20:56:00,40.7,35.6,29.84,SE,146,1.0,2.0,82,0.00,,,0.00,Wunderground v.1.15,2013-12-03 01:56:00,
2013-12-02 21:01:00,40.6,35.5,29.84,SE,135,1.0,2.0,82,0.00,,,0.00,Wunderground v.1.15,2013-12-03 02:01:00,
2013-12-02 21:06:00,40.5,35.4,29.84,SE,134,0.0,2.0,82,0.00,,,0.00,Wunderground v.1.15,2013-12-03 02:06:00,
2013-12-02 21:11:00,40.4,35.6,29.84,ESE,120,1.0,1.0,83,0.00,,,0.00,Wunderground v.1.15,2013-12-03 02:11:00,
2013-12-02 21:16:00,40.3,35.5,29.84,ESE,119,2.0,2.0,83,0.00,,,0.00,Wunderground v.1.15,2013-12-03 02:16:00,
2013-12-02 21:21:00,40.1,35.4,29.84,SE,124,0.0,0.0,83,0.00,,,0.00,Wunderground v.1.15,2013-12-03 02:21:00,
2013-12-02 21:26:00,40.0,35.3,29.84,ESE,121,1.0,1.0,83,0.00,,,0.00,Wunderground v.1.15,2013-12-03 02:26:00,
2013-12-02 21:31:00,40.0,35.6,29.84,SE,139,0.0,1.0,84,0.00,,,0.00,Wunderground v.1.15,2013-12-03 02:31:00,
2013-12-02 21:36:00,39.8,35.4,29.84,SE,139,0.0,1.0,84,0.00,,,0.00,Wunderground v.1.15,2013-12-03 02:36:00,
2013-12-02 21:41:00,39.6,35.2,29.84,SE,131,1.0,1.0,84,0.00,,,0.00,Wunderground v.1.15,2013-12-03 02:41:00,
2013-12-02 21:46:00,39.5,35.4,29.85,SE,125,1.0,2.0,85,0.00,,,0.00,Wunderground v.1.15,2013-12-03 02:46:00,
2013-12-02 21:51:00,39.4,35.3,29.85,SE,136,1.0,1.0,85,0.00,,,0.00,Wunderground v.1.15,2013-12-03 02:51:00,
2013-12-02 21:56:00,39.3,35.2,29.85,SE,133,1.0,2.0,85,0.00,,,0.00,Wunderground v.1.15,2013-12-03 02:56:00,
2013-12-02 22:01:00,39.5,35.7,29.85,SE,134,1.0,2.0,86,0.00,,,0.00,Wunderground v.1.15,2013-12-03 03:01:00,
2013-12-02 22:06:00,39.7,35.6,29.85,SE,134,1.0,2.0,85,0.00,,,0.00,Wunderground v.1.15,2013-12-03 03:06:00,
2013-12-02 22:11:00,40.0,35.9,29.85,SE,146,1.0,3.0,85,0.00,,,0.00,Wunderground v.1.15,2013-12-03 03:11:00,
2013-12-02 22:16:00,40.3,36.1,29.85,SE,135,1.0,3.0,85,0.00,,,0.00,Wunderground v.1.15,2013-12-03 03:16:00,
2013-12-02 22:21:00,40.6,36.1,29.85,SE,136,2.0,3.0,84,0.00,,,0.00,Wunderground v.1.15,2013-12-03 03:21:00,
2013-12-02 22:26:00,40.7,36.2,29.85,SE,134,1.0,4.0,84,0.00,,,0.00,Wunderground v.1.15,2013-12-03 03:26:00,
2013-12-02 22:31:00,40.7,36.2,29.84,SE,128,2.0,3.0,84,0.00,,,0.00,Wunderground v.1.15,2013-12-03 03:31:00,
2013-12-02 22:36:00,40.7,36.2,29.84,SE,134,1.0,3.0,84,0.00,,,0.00,Wunderground v.1.15,2013-12-03 03:36:00,
2013-12-02 22:41:00,40.8,36.3,29.85,SE,146,1.0,2.0,84,0.00,,,0.00,Wunderground v.1.15,2013-12-03 03:41:00,
2013-12-02 22:46:00,40.9,36.1,29.84,SE,134,2.0,3.0,83,0.00,,,0.00,Wunderground v.1.15,2013-12-03 03:46:00,
2013-12-02 22:51:00,41.1,36.3,29.84,SE,133,2.0,3.0,83,0.00,,,0.00,Wunderground v.1.15,2013-12-03 03:51:00,
2013-12-02 22:56:00,41.3,36.5,29.84,ESE,113,2.0,4.0,83,0.00,,,0.00,Wunderground v.1.15,2013-12-03 03:56:00,
2013-12-02 23:01:00,41.5,36.4,29.84,SE,131,1.0,3.0,82,0.00,,,0.00,Wunderground v.1.15,2013-12-03 04:01:00,
2013-12-02 23:06:00,41.5,36.4,29.84,ESE,110,5.0,5.0,82,0.00,,,0.00,Wunderground v.1.15,2013-12-03 04:06:00,
2013-12-02 23:11:00,41.6,36.5,29.85,SE,132,2.0,4.0,82,0.00,,,0.00,Wunderground v.1.15,2013-12-03 04:11:00,
2013-12-02 23:16:00,41.7,36.6,29.85,SE,134,2.0,5.0,82,0.00,,,0.00,Wunderground v.1.15,2013-12-03 04:16:00,
2013-12-02 23:21:00,41.7,36.3,29.85,SE,132,4.0,5.0,81,0.00,,,0.00,Wunderground v.1.15,2013-12-03 04:21:00,
2013-12-02 23:26:00,41.7,36.3,29.85,SE,134,3.0,5.0,81,0.00,,,0.00,Wunderground v.1.15,2013-12-03 04:26:00,
2013-12-02 23:31:00,41.7,36.6,29.85,SE,136,3.0,4.0,82,0.00,,,0.00,Wunderground v.1.15,2013-12-03 04:31:00,
2013-12-02 23:36:00,41.7,36.3,29.84,ESE,120,2.0,5.0,81,0.00,,,0.00,Wunderground v.1.15,2013-12-03 04:36:00,
2013-12-02 23:41:00,41.7,36.3,29.84,SSE,163,2.0,3.0,81,0.00,,,0.00,Wunderground v.1.15,2013-12-03 04:41:00,
2013-12-02 23:46:00,41.7,36.3,29.84,SE,139,0.0,3.0,81,0.00,,,0.00,Wunderground v.1.15,2013-12-03 04:46:00,
2013-12-02 23:51:00,41.7,36.6,29.84,SE,143,3.0,4.0,82,0.00,,,0.00,Wunderground v.1.15,2013-12-03 04:51:00,
2013-12-02 23:56:00,41.7,36.6,29.84,ESE,108,2.0,5.0,82,0.00,,,0.00,Wunderground v.1.15,2013-12-03 04:56:00,